Regional Weather Roundup
Issued by NWS Green Bay, WI

Home | Current Version | Previous Version | Text Only | Print | Product List | Glossary On
Versions: 1 2 3 4 5 6 7 8 9 10 11 12 13 14 15 16 17 18 19 20 21 22 23 24 25 26 27 28 29 30 31 32 33 34 35 36 37 38 39 40 41 42 43 44 45 46 47 48 49 50
000
ASUS43 KGRB 270310
RWRGRB

NORTH-CENTRAL AND NORTHEAST WISCONSIN REGIONAL WEATHER ROUNDUP
NATIONAL WEATHER SERVICE GREEN BAY WI
900 PM CST MON JAN 26 2015

WIZ005-009-010>012-018-019-270400-
NORTH CENTRAL WISCONSIN

CITY           SKY/WX    TMP DP  RH WIND       PRES   REMARKS
IRONWOOD       CLOUDY    21  18  86 CALM      29.86R
MANITOWISH WTR CLOUDY    19  17  93 CALM      29.86R
ARBOR VITAE    CLOUDY    20  18  89 CALM      29.86R
EAGLE RIVER    FLURRIES  19  16  86 CALM      29.85S
LAND O LAKES   CLOUDY    19  17  91 CALM      29.87R
RHINELANDER    CLOUDY    19  16  88 SE3       29.85F
PHILLIPS       CLOUDY    20  18  93 CALM      29.85R
ANTIGO         CLOUDY    20  19  95 SE5       29.86S
TOMAHAWK       CLOUDY    19  17  91 CALM      29.87R
MERRILL        CLOUDY    21  19  93 CALM      29.87R
$$

WIZ013-073-270400-
NORTHEAST WISCONSIN

CITY           SKY/WX    TMP DP  RH WIND       PRES   REMARKS
IRON MOUNTAIN  LGT SNOW  21  17  84 SE8       29.89S VSB 3/4
MARINETTE      CLOUDY    23  19  86 SE9       29.93S
OCONTO         CLOUDY    25  24  94 CALM      29.93R
$$

WIZ017-030-035>037-045-270400-
CENTRAL WISCONSIN

CITY           SKY/WX    TMP DP  RH WIND       PRES   REMARKS
MEDFORD        CLOUDY    21  19  93 CALM      29.86R
WAUSAU         CLOUDY    21  19  92 NE3       29.87R
MOSINEE        CLOUDY    21  21 100 E3        29.87R
MARSHFIELD     CLOUDY    23  20  88 E3        29.86R
WISC RAPIDS    CLOUDY    23  20  88 CALM      29.89R
STEVENS POINT  CLOUDY    20  19  96 CALM      29.89R
WAUPACA        LGT SNOW  26  23  89 CALM      29.89R
SHAWANO        LGT SNOW  26  23  89 CALM      29.92R VSB 1
CLINTONVILLE   LGT SNOW  25  23  93 E3        29.90R
$$

WIZ038-039-048-051-270400-
FOX VALLEY

CITY           SKY/WX    TMP DP  RH WIND       PRES   REMARKS
NWS GREEN BAY  LGT SNOW  24  22  91 SE3       29.91S FOG
APPLETON       LGT SNOW  25  23  93 SE7       29.89S
OSHKOSH        LGT SNOW  24  21  88 SE3       29.90R FOG
FOND DU LAC    LGT SNOW  24  21  88 SE3       29.90R FOG
$$

WIZ022-050-052-270400-
EAST CENTRAL WISCONSIN

CITY           SKY/WX    TMP DP  RH WIND       PRES   REMARKS
STURGEON BAY   CLOUDY    23  18  80 SE8       29.95R
MANITOWOC      MIX PCPN  26  21  81 SE15      29.93R
SHEBOYGAN      FLURRIES  26  22  84 CALM      29.92R
$$

LMZ563-521-522-541>543-270400-
LAKESHORE

STATION/POSITION TIME  TEMP    WIND        PRES    VSBY  WAVE
                       AIR SEA DIR/SP/G                  HT/PER
                 (UTC) (F)     (DEG/KT/KT) (MB)    (MI)  (FT/S)
SHEBOYGAN LKSHOR 0300   27     130/ 17/ 17 1014.4R
KEWAUNEE LKSHORE 0300   27     160/ 13/ 17 1012.8S
NORTHPORT PIER   0300   24     120/  9/ 13 1014.9R
SISTER BAY LKSHO 0200   25     120/  9/ 13   N/A
CHAMBERS ISLAND  0300   23      80/  3/  5 1014.6S
MENOMINEE LKSHOR 0300   24     100/ 10     1014.5S
$$



USA.gov is the U.S. government's official web portal to all federal, state and local government web resources and services.